Location: Hains Lake
(37.8540°N, 99.8578°W)
Time: 14:35:53
(UTC+00:00)

Vanguard 1 - Pass Details

Date: 01 December 2021
Orbit: 652 x 3830 km, 34.2° (Epoch: 22 January)

Event Time Altitude Azimuth Distance (km) Brightness Sun altitude
Exits shadow 11:08:25 38° 267° (W) 4,406 12.7 -28.7°
Maximum altitude 11:18:19 73° 195° (SSW) 2,886 12.2 -26.7°
Drops below altitude 10° 11:30:52 10° 113° (ESE) 4,253 14.3 -24.3°
Sets 11:33:30 0° 111° (ESE) 4,927 15.0 -23.8°
